星链-34119 (STARLINK-34119)

导读 | 豆包AI

STARLINK-34119是美国太空探索技术公司星链星座的卫星,于2025年5月10日发射。星链项目旨在构建全球卫星互联网星座,该卫星继承星链典型设计,依托低轨运行优势,为全球偏远区域、地面网络覆盖盲区提供高速宽带网络接入服务,是美国持续扩容低轨卫星互联网星座的新增节点,助推星链星座全球服务能力升级。

基本信息
目录编号:
63895
目录名称:
STARLINK-34119
国际标识:
2025-095F
轨道中心:
EARTH
卫星名称:
星链-34119
卫星全名:
星链-34119 (STARLINK-34119)
卫星状态:
在轨 (已飞行308 天)
发射日期:
2025-05-10 UTC
国别 :
美国 (US)
星等 :
--
轨道信息
数据来源 国际轨道数据
星历时间: 2026-03-14T22:02:47+0800
6小时前
查看轨道信息
半长轴: 6861.207km
偏心率: 0.0000838
轨道倾角: 42.999°
近地点辐角 248.944°
升交点赤经 148.827°
平近点角 111.132°
近地点: 482.495km
远地点: 483.645km
周期: 94.267分钟
每日圈数: 15.275732
详细信息
固有亮度:
5
最大亮度:
2.5
卫星平台:
Starlink V1.0
覆盖范围:
全球
运营商:
太空探索技术公司
运营商所在国:
美国
制造商(研发单位):
太空探索技术公司
制造商所在国:
美国
使用方式:
暂无
卫星简介
Starlink 计划是 SpaceX 推出的全球卫星互联网项目,通过发射低轨道卫星,为全球尤其是偏远地区提供高速、低延迟的互联网服务。自 2019 年起,Starlink 已部署数千颗卫星,旨在缩小全球数字鸿沟,推动互联网普及。该项目还为军事、航空等行业提供通信支持,带来广泛经济效益。
2D轨道图
3D轨道图
轨道高度分析图
轨道倾角分析图
轨道综合分析图
查看轨道综合分析图